RH
16 18 20 22 23 24 24 25 28 27 23 18 12 9 8 9 16 24 26 26 29 27 23 20 17 13 10 9 9 11 11 10 10 8 8 7 7 7 7 7 7 7 6 5 5 5 7 8 6 5 4 3 3 3 3 3 3 3 4 3 3 4 2 4 12 21 33 48 54 53 51 50 49 47 49 62 77 79 65 61 67 69 70 71 68 62
18 17 18 20 22 25 25 27 31 28 25 22 14 10 9 8 12 22 29 29 29 27 24 22 19 14 12 10 9 10 10 10 10 10 9 8 7 7 7 7 7 6 6 5 5 6 7 8 6 5 4 4 4 3 3 3 3 3 4 3 3 3 3 5 9 18 36 49 54 55 56 57 57 55 60 75 84 74 61 58 61 65 66 66 64 62
18 15 17 20 21 25 26 30 31 27 27 26 18 13 10 8 10 20 29 30 30 29 26 23 19 15 13 11 9 9 9 9 10 11 11 10 8 8 7 7 7 6 6 6 6 6 7 7 5 5 4 4 4 3 3 3 3 4 3 4 5 3 4 4 5 16 29 36 45 53 60 69 71 71 77 85 85 74 61 55 53 56 58 58 60 56
15 13 16 20 21 24 26 29 30 26 27 27 21 16 11 8 9 17 27 30 29 28 27 24 20 17 15 12 10 9 9 9 10 11 12 12 11 9 8 7 6 6 6 6 6 7 7 6 5 5 5 4 4 4 3 3 3 4 4 4 4 4 5 5 8 14 15 19 38 52 59 72 77 76 83 89 86 75 64 59 58 59 60 58 56 47
14 16 20 21 19 22 25 27 30 28 28 28 26 21 14 9 9 16 28 30 29 29 26 23 20 18 15 13 10 8 9 9 9 10 11 12 12 10 9 7 7 7 6 7 7 7 7 7 6 6 5 5 5 4 3 4 4 4 5 4 5 5 5 9 14 17 20 29 48 62 61 65 71 75 83 88 86 78 70 70 72 72 74 70 55 40
20 23 23 22 19 21 24 27 30 29 29 29 28 25 17 10 9 17 28 30 30 28 24 22 20 17 15 13 11 9 8 8 8 9 10 12 13 12 10 8 8 7 6 7 7 7 8 6 6 6 6 5 5 4 4 4 4 4 4 4 5 5 10 23 27 24 35 51 66 77 67 55 63 76 82 83 84 83 79 80 83 84 88 78 53 43
25 29 23 21 19 21 24 26 30 30 30 30 28 26 20 11 10 17 27 30 29 27 24 23 20 19 16 12 11 10 8 8 8 8 9 11 13 13 12 10 9 7 6 6 7 8 8 6 7 7 6 6 5 5 5 4 6 9 12 11 7 11 30 52 59 51 50 60 73 78 66 60 76 88 88 89 92 93 91 91 91 92 95 82 62 61
27 31 21 20 21 22 25 25 28 29 30 30 28 28 23 12 10 18 26 30 29 28 27 24 22 21 17 12 11 11 9 8 8 8 8 10 13 14 14 12 10 9 8 7 9 9 8 8 8 8 8 7 5 5 4 4 7 14 24 31 31 46 65 70 75 75 67 69 78 76 69 77 91 94 95 98 100 100 98 97 94 90 92 87 79 81
25 27 18 22 25 24 25 25 28 30 32 33 28 30 27 14 11 18 25 28 28 28 26 23 23 21 16 13 12 11 10 9 8 8 8 9 12 13 14 13 12 11 10 10 11 10 9 10 10 10 10 7 6 6 5 7 13 22 38 51 58 74 83 75 75 79 71 71 79 79 79 85 89 92 98 100 100 101 99 97 94 89 90 92 92 93
22 22 24 28 30 27 27 28 29 30 35 34 27 32 32 17 10 17 23 26 26 25 24 23 22 19 16 14 11 10 9 8 9 8 8 9 10 13 14 14 13 12 12 12 12 11 10 11 12 11 10 8 7 5 8 19 30 41 52 58 67 80 85 81 83 84 79 76 77 79 84 88 90 94 98 98 97 99 99 98 98 93 91 96 99 99
36 22 33 38 38 36 34 32 29 34 42 37 30 37 36 18 10 16 21 23 24 22 21 23 22 18 16 13 10 10 9 9 9 8 8 9 9 12 13 14 14 13 14 14 13 12 13 13 13 12 10 9 8 5 8 18 28 38 43 42 56 80 92 89 83 79 78 76 75 79 86 91 96 98 98 98 96 93 94 97 97 95 95 99 101 100
54 37 42 42 46 44 39 35 31 40 48 39 35 42 36 18 11 15 18 21 21 19 21 22 22 19 16 14 12 11 10 9 9 8 8 9 9 11 12 15 15 14 14 14 14 14 14 14 13 13 12 9 8 7 6 9 14 22 26 30 46 70 83 75 61 59 66 72 76 79 82 87 95 100 99 98 95 92 93 95 97 99 100 100 101 100
57 53 48 44 51 45 37 38 39 47 51 42 42 44 34 19 11 13 16 19 18 18 20 22 21 19 15 15 13 11 11 10 9 10 9 9 10 11 14 15 15 15 15 15 15 15 15 15 14 14 14 11 9 8 7 7 10 14 17 26 44 66 71 53 44 55 68 77 78 74 75 85 94 98 98 97 96 96 98 97 98 100 100 100 101 99
48 55 53 53 57 44 37 41 40 42 41 37 40 41 33 21 12 12 14 16 18 16 18 20 20 18 15 15 12 10 11 10 10 10 10 10 12 14 16 16 16 16 16 16 16 17 16 15 15 15 15 14 12 10 9 8 9 13 16 25 43 67 67 45 42 62 77 83 81 75 80 92 98 98 100 99 97 98 101 99 99 101 100 101 101 98
35 46 52 54 56 45 40 42 39 39 38 38 42 42 35 23 13 12 13 14 16 16 16 18 18 17 16 14 11 10 11 10 10 11 10 11 14 17 17 17 17 17 16 17 17 17 17 16 16 16 16 15 14 13 11 9 10 10 16 32 50 61 54 36 37 58 78 88 88 87 92 98 96 94 98 100 98 100 99 95 98 101 100 100 100 96
28 32 41 50 60 55 47 48 52 56 55 51 50 45 36 26 18 14 13 14 15 15 14 16 17 17 16 13 10 11 12 10 10 11 10 11 13 16 18 18 18 17 17 18 18 18 18 16 16 16 16 17 16 15 12 11 11 7 14 37 52 49 39 28 30 50 74 86 89 93 97 98 95 94 98 99 99 100 96 91 95 100 100 101 98 95
30 25 39 61 72 67 60 58 58 59 57 51 47 43 37 32 25 18 15 13 14 14 13 13 17 17 14 11 10 11 12 11 11 10 10 11 13 16 18 18 17 16 17 18 18 19 18 17 17 17 18 19 17 17 14 11 10 7 16 35 40 32 28 28 35 52 70 81 88 93 94 96 99 98 96 97 97 96 93 93 99 100 101 99 95 96
44 29 39 65 74 70 69 69 63 61 62 55 46 44 43 37 27 22 21 16 13 14 12 13 17 18 15 12 10 11 12 11 10 11 10 11 13 16 17 17 16 16 17 18 18 18 17 17 17 17 18 19 18 17 15 12 9 9 20 32 31 26 34 53 69 73 76 82 89 94 93 93 95 92 88 89 91 92 93 97 101 101 100 97 94 97
58 34 41 69 83 82 80 79 73 66 63 61 57 51 43 34 27 24 22 17 13 12 12 14 16 18 16 13 11 12 12 11 11 11 11 11 13 15 15 15 15 16 17 17 17 16 16 17 17 19 20 19 19 18 14 11 10 16 28 33 30 29 43 74 93 86 79 82 88 95 94 88 84 81 81 83 83 89 97 100 99 96 95 95 95 98
59 38 52 79 94 96 89 81 76 67 54 52 59 54 40 34 31 27 23 18 17 17 15 15 16 19 17 13 12 12 12 12 11 11 11 12 13 14 15 15 15 16 17 16 17 16 16 18 20 23 24 22 21 17 13 12 15 25 33 32 32 38 53 78 91 85 81 83 88 93 87 80 77 72 72 80 86 93 98 95 91 90 91 95 98 100
55 43 64 87 101 102 89 78 76 73 57 43 44 44 40 37 33 31 29 25 24 24 20 17 16 18 17 13 11 12 12 12 11 12 12 12 14 15 15 16 16 17 18 17 17 17 18 20 23 26 28 25 19 14 12 13 21 31 34 33 40 52 67 82 86 82 81 83 86 85 77 77 81 74 70 80 91 96 93 86 88 94 97 99 98 93
64 59 75 90 98 94 87 87 85 78 67 52 43 40 40 39 34 34 33 28 27 27 23 20 18 18 17 13 12 12 13 13 12 14 15 15 16 16 15 17 17 18 18 17 18 19 20 23 25 26 26 22 16 13 13 17 26 35 35 38 49 62 72 78 79 78 79 82 81 75 72 79 82 77 76 84 91 95 93 91 96 100 98 92 86 80
73 77 88 92 95 94 96 98 88 76 69 60 50 44 43 41 36 34 33 29 28 26 21 21 21 22 19 13 12 14 14 14 13 14 16 17 17 17 17 18 18 18 18 18 20 21 23 25 25 25 22 18 14 12 15 23 34 39 37 43 55 63 64 61 62 67 73 79 76 66 69 81 83 75 77 87 93 93 91 90 93 92 85 77 73 71
67 88 101 98 99 100 102 100 89 80 71 60 51 45 43 41 36 40 41 33 28 27 24 21 21 24 23 15 13 15 15 16 16 15 15 16 17 17 19 18 19 19 18 20 21 23 26 27 25 22 18 15 14 16 23 34 42 42 39 45 53 54 48 42 42 50 63 74 69 51 50 67 78 75 73 79 85 84 78 74 74 75 71 66 64 61
70 94 105 101 103 105 105 102 91 77 64 54 49 42 40 40 38 44 45 34 30 29 26 25 24 23 21 17 15 15 17 18 18 16 15 16 17 17 19 19 19 20 20 22 23 25 29 31 29 25 22 22 23 27 35 43 47 44 39 44 48 42 35 30 28 35 50 57 48 33 32 48 65 69 65 65 69 69 64 60 61 63 61 59 56 53
86 102 102 97 96 90 83 73 59 50 46 45 45 39 38 38 37 40 38 32 32 29 25 31 38 31 22 19 17 16 18 18 17 16 16 16 17 18 20 21 20 20 21 24 25 28 31 33 34 36 35 34 33 34 39 45 48 44 38 40 43 36 28 25 22 27 35 36 27 23 28 41 54 58 55 56 56 55 54 55 56 57 57 56 54 53
89 101 94 86 79 69 63 55 46 45 44 44 43 39 38 38 37 38 36 33 32 28 25 30 39 36 27 22 19 17 18 18 17 17 17 17 18 20 21 21 21 22 24 26 27 29 31 31 35 40 41 37 35 35 39 44 47 44 37 36 38 34 28 23 21 22 24 23 19 19 25 38 49 52 51 53 51 47 49 52 54 56 57 57 57 60
88 92 79 74 76 77 79 73 64 61 55 50 48 45 44 41 39 39 37 33 31 31 31 26 25 27 24 20 19 18 18 18 18 18 18 18 19 21 22 22 23 24 26 28 30 30 32 31 31 35 37 35 33 33 37 44 47 43 36 34 33 33 29 24 21 20 19 19 18 17 20 30 43 52 55 56 51 44 43 48 53 57 60 63 65 67
93 92 78 73 79 86 88 77 66 64 59 55 52 48 47 44 41 39 36 34 33 34 36 31 24 22 19 18 21 20 18 19 19 19 19 20 21 22 23 25 27 29 31 33 33 32 32 32 30 31 31 31 30 30 34 43 47 43 37 35 34 35 34 29 23 20 19 19 18 17 17 22 32 45 54 58 53 43 38 41 46 51 56 63 67 69
89 90 83 76 72 73 75 70 67 65 59 54 51 48 47 44 41 40 37 36 36 34 34 34 28 22 19 20 22 21 20 20 20 20 20 21 23 24 27 30 33 36 37 34 32 32 32 31 31 29 27 27 27 26 30 41 47 46 41 39 39 41 40 36 30 23 20 19 18 18 17 18 22 30 39 47 48 43 37 34 34 36 41 47 55 62
86 87 82 75 68 67 69 70 70 66 60 56 52 49 47 43 41 40 37 36 37 35 36 38 32 25 23 25 24 23 23 21 20 21 22 23 25 28 31 36 39 39 36 34 37 41 42 40 38 33 28 26 25 23 28 39 45 44 43 41 42 44 45 43 40 32 24 21 19 18 18 18 18 20 25 30 34 36 36 33 29 27 27 31 39 47
88 86 80 76 73 72 71 71 68 64 61 58 54 50 46 42 40 38 36 38 40 41 44 42 33 28 28 29 28 28 25 22 22 23 24 25 28 33 37 39 40 37 34 41 49 51 51 50 47 40 32 26 23 21 28 38 41 40 40 37 37 40 42 45 47 43 33 26 21 18 18 18 18 18 19 21 23 26 30 31 31 30 28 27 30 35
88 82 81 83 79 72 69 69 67 62 59 55 51 48 44 41 40 37 37 43 45 43 45 42 34 32 33 32 32 32 28 25 26 25 26 28 32 36 40 41 39 35 38 49 55 53 52 51 47 42 35 30 26 25 29 36 40 39 39 41 43 41 37 39 46 47 39 29 23 20 18 18 19 19 19 20 20 21 23 28 32 32 30 29 30 32
83 79 81 84 80 73 70 68 64 60 56 51 48 46 43 41 39 35 41 52 53 45 44 44 40 39 42 39 35 34 31 28 29 28 28 30 34 37 40 40 37 36 43 53 53 50 49 46 41 39 36 32 31 31 32 34 36 37 38 44 49 46 40 39 41 40 34 27 22 20 19 19 19 20 21 21 20 20 22 25 29 29 30 32 33 33
77 75 78 85 84 73 67 65 59 55 53 50 48 45 42 41 40 38 44 52 52 47 47 51 51 51 54 52 42 36 35 32 31 32 32 33 36 39 41 40 38 38 46 52 50 45 43 41 39 39 37 33 30 30 32 34 36 37 38 41 45 44 42 40 35 29 26 23 22 21 21 22 23 23 24 24 23 22 21 23 26 26 27 30 33 34
73 69 75 92 91 69 60 60 54 53 54 50 46 44 42 41 40 39 40 40 41 42 46 58 66 63 62 61 52 45 43 40 37 38 39 39 40 42 43 42 40 41 45 50 51 46 40 39 41 43 43 38 31 27 28 32 37 41 43 43 42 41 39 35 31 28 28 27 29 30 31 32 32 31 29 27 25 24 23 24 25 25 25 29 33 35
74 71 74 86 82 61 54 55 53 57 58 49 44 43 41 39 38 36 37 38 39 39 40 55 74 78 71 65 59 55 53 49 47 46 44 44 45 47 47 43 41 41 42 47 54 53 49 47 48 49 49 43 35 27 25 29 33 39 45 45 42 39 37 35 33 34 35 36 38 40 41 42 41 39 36 33 30 29 31 31 29 27 29 32 35 38
84 80 72 70 66 55 50 51 54 58 56 48 45 42 38 39 39 38 39 40 41 42 42 48 66 80 81 71 64 62 60 57 55 53 49 47 46 47 45 41 40 41 42 46 52 55 55 54 51 48 45 39 33 26 24 31 37 39 42 45 46 43 40 40 40 39 39 40 41 42 43 44 45 45 43 40 36 35 36 38 36 34 34 36 38 39
97 91 77 67 62 54 50 50 51 52 51 50 48 43 41 43 43 41 45 45 46 54 59 55 56 66 77 77 70 66 63 60 57 54 50 47 44 43 42 41 41 43 43 44 44 42 41 40 38 37 34 31 29 28 33 44 50 47 44 45 46 46 45 45 43 39 39 41 41 44 48 49 49 49 47 45 44 42 41 43 47 46 42 43 45 49
99 91 80 73 68 57 50 52 51 48 50 51 49 47 47 49 47 45 48 50 52 62 71 67 59 59 65 71 72 70 68 66 63 59 54 49 46 46 45 45 46 46 47 46 42 36 33 32 32 32 31 31 34 40 47 53 55 56 55 51 47 47 50 48 42 42 50 57 58 60 64 63 59 56 55 52 50 49 49 51 58 63 63 65 69 75
100 92 84 82 80 64 52 56 57 51 51 52 52 53 54 56 56 51 48 49 55 67 75 72 70 67 64 64 67 69 71 73 71 68 64 59 57 56 56 57 56 55 55 53 47 40 35 34 35 36 37 39 45 51 54 55 56 59 61 61 59 56 53 49 46 48 57 68 73 73 72 71 68 65 65 63 57 58 62 62 63 68 70 73 81 82
98 98 90 85 85 74 65 67 66 61 60 58 58 62 66 67 62 55 51 51 54 64 73 75 75 74 69 67 65 64 65 68 69 71 71 69 67 64 62 62 59 55 53 49 44 40 39 38 39 40 43 49 55 61 63 61 60 57 55 59 65 66 62 60 59 55 53 60 69 69 65 65 66 67 72 74 69 65 65 60 55 52 50 54 63 63
91 95 89 84 87 82 76 74 69 66 68 68 68 71 71 67 61 57 60 60 54 55 62 66 69 68 67 69 70 68 67 65 62 63 63 62 59 53 49 49 46 44 46 45 44 44 45 44 43 45 50 55 59 65 68 66 64 60 55 55 60 64 63 61 58 53 49 52 59 59 56 57 61 69 80 85 81 74 65 57 49 44 42 45 48 45
87 90 89 89 90 82 72 71 73 74 72 71 75 75 68 65 66 67 70 69 62 57 55 54 55 57 59 65 69 70 71 69 63 57 53 50 47 42 41 44 45 46 50 53 54 57 61 61 61 62 65 63 62 64 67 67 65 61 59 57 56 56 54 54 55 52 48 48 51 52 51 49 51 63 79 87 86 80 71 61 53 47 45 44 43 40
87 88 87 89 90 85 80 81 86 89 83 78 81 81 74 74 79 77 74 73 70 66 61 57 55 54 54 59 64 66 66 65 61 57 53 49 47 44 45 50 53 57 62 64 65 70 77 80 81 80 79 76 72 69 68 68 66 64 63 60 56 53 55 61 70 71 65 60 60 59 57 53 49 55 69 79 81 78 74 66 58 52 48 45 43 42
89 88 86 90 93 93 93 91 90 94 93 89 90 90 84 82 83 81 80 78 75 72 69 67 65 61 58 58 59 60 59 57 55 57 58 58 56 54 52 52 56 63 71 74 72 72 73 74 75 77 77 75 73 70 68 68 67 66 65 61 57 59 62 65 70 72 68 64 62 59 60 61 59 60 66 70 71 70 69 65 59 54 50 47 45 44
91 90 89 92 90 88 91 91 91 95 98 95 95 96 93 88 86 85 84 83 81 79 76 72 71 70 68 65 63 62 60 58 57 57 59 61 64 63 61 57 55 57 63 71 74 72 67 63 60 61 63 62 60 58 58 61 64 65 65 61 57 58 61 60 60 59 58 56 55 54 55 56 56 56 58 61 65 67 65 61 57 54 51 49 47 46
93 93 93 92 88 86 91 94 93 96 100 99 99 99 98 94 90 88 86 84 83 82 79 76 74 72 72 71 69 67 65 64 63 62 61 62 62 62 61 58 55 52 53 59 66 67 65 60 54 52 51 50 49 47 45 47 52 56 58 59 57 56 56 55 53 51 51 51 51 51 49 46 45 44 46 52 61 65 63 60 57 54 52 49 48 45
94 90 93 97 95 93 97 97 96 97 99 100 100 99 98 97 94 90 87 84 83 83 81 79 76 74 72 72 71 70 70 69 68 66 64 61 59 57 56 55 54 53 52 52 55 56 56 54 51 48 45 41 40 39 38 39 41 44 47 49 49 49 49 48 48 51 54 54 52 49 44 39 36 35 39 47 55 59 58 57 56 53 51 49 47 46
98 93 95 100 100 99 99 99 99 99 99 99 99 99 98 98 96 94 92 88 86 85 83 81 78 76 75 73 72 72 71 70 69 67 64 60 56 53 52 52 51 52 52 51 50 49 49 47 44 41 37 34 33 33 33 35 36 37 38 38 37 38 41 44 50 57 60 59 57 53 49 43 38 34 34 40 47 52 54 56 56 54 52 51 48 47
91 95 98 99 99 101 101 99 98 99 100 100 100 99 99 98 96 96 94 90 86 83 81 79 77 75 75 74 72 71 70 69 67 65 62 59 56 52 49 47 45 44 44 43 43 42 40 38 35 32 31 30 30 30 30 31 31 31 31 30 30 32 38 46 55 62 64 61 58 54 50 47 43 38 35 36 42 49 54 59 61 58 55 53 49 50
Wind_Speed
68 73 75 74 73 72 72 71 70 70 68 66 66 63 63 62 55 52 51 44 42 46 48 49 48 47 46 44 41 41 43 44 44 45 45 45 42 39 37 35 34 33 32 29 26 23 19 21 24 22 21 21 20 20 20 21 22 23 24 25 26 26 27 28 28 29 29 28 26 26 26 26 26 25 26 26 27 30 31 29 27 26 27 26 24 22
66 71 73 72 71 70 70 68 70 71 68 66 65 63 62 59 53 48 45 42 41 44 47 47 48 47 46 45 43 43 44 44 44 45 45 45 43 40 38 36 35 34 31 28 25 22 21 24 24 22 21 21 21 20 21 22 24 25 25 26 27 28 29 30 30 30 29 26 25 25 25 25 24 23 24 26 27 30 30 29 28 27 27 26 24 22
66 70 70 71 70 70 69 67 69 71 68 67 64 60 59 57 53 47 44 42 41 43 45 45 47 47 46 46 46 45 45 44 44 44 44 43 43 42 40 38 36 34 31 28 25 23 24 26 25 23 22 22 21 21 22 23 25 25 25 27 28 30 31 32 32 30 27 25 24 25 24 23 22 22 23 25 27 29 29 29 28 27 27 26 25 23
65 67 68 69 70 70 69 67 68 69 68 65 62 59 58 56 53 47 44 43 42 42 44 44 45 45 46 48 48 47 46 44 44 44 44 45 45 43 42 40 38 35 32 28 26 26 27 28 26 24 23 22 21 21 23 25 25 26 27 28 30 32 33 32 30 27 26 26 25 24 23 22 22 22 22 24 27 29 29 29 28 28 28 27 25 23
61 64 65 68 71 70 68 66 65 67 66 63 61 58 57 57 52 45 42 42 40 41 44 44 44 44 46 50 50 49 47 46 45 45 46 47 46 45 44 43 40 37 33 30 29 29 30 30 27 25 23 22 22 23 25 26 26 27 28 30 33 34 33 30 27 26 25 25 25 24 23 23 23 23 24 25 27 29 30 30 29 29 28 27 24 23
58 61 64 68 70 69 67 65 64 65 65 64 62 59 58 57 50 45 43 41 40 42 44 42 42 43 46 50 50 48 47 47 45 44 45 45 45 45 45 43 41 37 34 32 31 30 31 30 27 25 24 23 23 25 27 27 28 29 31 33 35 35 31 27 26 24 23 24 25 25 24 24 25 25 24 24 26 29 30 30 29 29 27 25 23 22
58 60 64 67 68 65 65 65 64 64 64 64 63 59 59 57 49 45 43 41 41 42 41 41 41 42 45 49 49 48 49 47 43 42 43 44 44 44 43 41 39 36 35 34 32 32 32 30 27 26 26 25 26 28 29 29 30 32 34 34 35 34 27 25 24 22 22 24 24 23 24 24 24 24 24 24 26 29 30 31 29 28 26 24 23 22
57 60 64 64 63 62 63 64 62 62 62 62 62 60 58 53 48 46 43 41 41 40 41 42 41 42 45 47 48 48 48 45 43 42 42 43 43 42 40 38 37 35 35 34 32 33 32 29 28 27 26 26 27 29 30 30 32 35 35 33 32 29 24 25 25 23 24 25 23 21 22 23 23 23 25 26 27 29 32 31 27 25 25 24 23 23
57 60 63 61 60 62 63 62 61 61 60 61 62 59 55 50 47 46 43 41 41 42 44 43 42 43 45 46 47 48 48 45 45 43 42 42 41 39 38 36 35 34 33 32 32 34 32 29 28 27 26 26 28 29 30 32 34 36 33 29 28 26 25 26 26 27 26 24 24 22 22 23 23 24 25 27 27 28 31 31 26 24 24 23 23 23
55 58 58 57 60 63 63 62 62 60 59 61 61 56 52 49 48 47 44 42 43 45 44 42 43 44 44 45 46 47 48 47 46 43 40 38 37 37 36 34 33 32 31 32 34 34 30 29 29 27 27 27 28 30 32 34 34 33 29 27 29 27 27 26 25 26 26 24 25 24 23 23 23 25 26 27 27 27 28 28 25 24 24 24 24 24
49 53 55 57 60 62 62 63 63 59 59 61 59 55 51 49 49 48 46 44 46 47 44 42 43 43 43 44 44 46 46 45 43 40 37 36 35 36 35 33 32 30 31 33 34 32 29 28 28 27 27 28 30 32 34 34 32 30 28 29 31 28 25 25 24 24 24 24 25 24 24 23 24 25 25 25 25 25 26 26 24 24 26 26 25 25
43 47 54 59 59 62 62 62 62 59 59 60 56 53 51 50 50 50 49 48 50 48 43 43 44 43 43 43 43 45 44 41 38 36 35 34 33 32 32 32 31 31 33 34 32 30 28 28 27 26 28 30 31 32 33 32 30 29 28 30 33 29 25 24 23 23 22 23 24 25 25 24 25 25 25 25 24 24 26 26 25 26 27 27 26 25
40 42 51 58 58 62 63 61 60 59 58 57 54 53 52 52 53 53 52 52 51 48 45 44 44 44 44 44 45 44 41 38 36 35 33 32 30 30 31 32 32 32 34 33 31 30 29 27 26 27 30 32 32 33 33 32 30 30 30 33 32 27 22 21 21 21 21 23 25 26 26 25 26 25 25 26 26 25 25 24 24 24 25 25 24 22
40 42 50 56 58 62 62 60 60 60 58 56 55 55 54 54 56 56 55 54 52 50 47 45 45 44 43 44 44 40 37 36 35 34 33 31 30 31 33 33 33 34 34 32 31 30 29 27 27 29 31 33 33 34 34 32 31 32 33 32 30 25 18 16 18 19 19 22 25 26 25 26 26 24 24 25 26 25 23 22 22 22 22 23 21 18
41 45 51 57 58 59 59 59 59 58 57 57 56 55 54 55 56 56 56 55 53 51 49 47 46 44 43 43 41 36 35 36 35 35 35 35 35 36 36 35 35 35 34 32 32 31 29 28 29 30 32 32 33 33 33 32 32 34 33 31 29 25 19 16 18 20 20 21 23 23 23 24 24 23 23 24 24 23 20 19 20 20 21 20 16 15
39 43 49 55 55 55 57 58 57 56 56 57 56 56 56 55 54 55 55 54 53 52 50 48 47 45 44 44 40 36 36 37 37 38 38 37 38 38 38 37 37 36 35 34 33 31 30 30 30 31 31 32 32 32 32 31 32 33 33 30 28 25 21 18 20 22 22 22 23 23 23 22 22 22 23 23 22 20 18 18 19 20 21 18 15 15
36 40 46 51 53 54 55 56 57 56 56 56 55 56 57 56 57 57 56 55 55 53 50 47 46 45 44 42 38 35 36 37 37 37 37 36 37 38 38 39 38 37 36 35 33 31 31 31 30 31 31 31 32 31 31 31 31 32 31 29 28 26 23 21 21 23 23 22 22 21 21 21 20 19 20 21 19 18 18 19 19 19 19 17 15 15
33 39 46 49 51 54 54 55 57 57 55 54 55 57 58 60 61 59 57 57 55 52 49 46 45 44 43 40 35 34 37 37 36 36 36 37 38 39 40 39 38 36 36 34 32 32 32 31 30 30 31 31 32 31 30 30 31 31 29 29 29 27 23 20 20 21 20 20 19 18 18 18 17 16 18 19 18 17 17 18 17 18 18 16 15 16
33 37 43 46 48 51 54 55 57 57 57 56 55 57 60 62 61 59 59 58 54 50 49 47 45 44 44 40 35 35 37 36 35 37 37 37 38 39 38 37 35 35 34 33 32 31 30 30 30 30 30 31 31 31 30 30 30 29 28 29 29 26 22 19 19 19 18 19 18 16 16 16 15 16 17 17 18 17 16 17 17 17 17 16 16 19
34 36 39 43 45 47 52 55 56 58 60 61 59 60 60 59 58 57 57 54 51 49 49 47 46 46 44 40 35 34 36 35 36 37 37 37 36 37 35 34 33 33 33 31 30 29 29 29 30 29 30 31 31 30 30 30 29 27 27 28 26 23 21 20 19 18 17 18 17 15 15 15 15 17 17 16 16 15 15 15 15 15 15 17 19 19
32 34 36 41 44 47 51 54 57 58 58 59 60 60 59 57 57 55 54 52 49 49 49 47 46 45 43 39 34 33 35 35 36 36 36 36 35 35 34 33 34 33 31 30 29 28 29 29 29 29 30 31 30 29 30 29 28 27 27 27 24 21 20 20 19 18 17 17 16 15 15 15 15 16 16 15 15 16 15 14 16 17 18 19 18 17
31 32 35 42 45 48 50 52 55 57 55 56 57 57 57 56 57 56 55 53 50 49 49 47 45 43 41 38 31 31 34 35 37 36 35 35 34 34 34 34 34 32 30 29 29 28 29 29 30 29 30 30 29 29 29 28 27 27 26 25 23 20 19 19 17 16 16 14 14 14 13 13 13 12 13 14 15 15 15 15 17 18 18 17 16 14
31 29 32 41 43 45 48 49 53 55 55 56 55 55 56 56 56 55 53 52 51 50 50 48 46 42 39 36 30 30 34 36 36 37 36 35 34 33 33 33 32 31 30 29 28 27 27 29 29 29 29 29 28 28 28 27 27 26 25 24 22 20 18 17 16 15 14 13 13 12 11 11 11 10 11 13 13 13 14 15 17 16 16 15 14 14
32 29 29 37 38 39 44 48 51 54 55 55 54 55 57 56 55 52 48 50 51 48 47 46 44 41 36 33 31 31 34 36 36 37 37 36 35 34 34 33 32 31 29 28 26 26 26 27 27 27 27 26 26 26 26 26 26 26 25 24 22 20 18 15 15 15 14 13 13 12 11 12 13 12 12 13 13 13 13 15 15 15 15 15 14 14
34 29 28 36 38 39 46 51 54 56 56 54 55 57 58 56 55 51 48 50 50 47 46 41 38 39 35 30 30 32 34 36 36 36 36 35 35 34 34 33 32 30 28 26 26 25 25 24 24 24 24 24 25 26 25 25 25 26 26 24 22 21 18 15 14 14 13 13 12 12 12 13 14 14 13 13 13 13 12 13 14 15 15 15 15 16
33 26 24 35 40 43 49 53 55 56 54 54 56 57 57 55 55 53 51 51 48 47 46 36 29 33 32 28 30 32 33 35 36 35 36 35 34 34 33 32 31 29 27 27 27 26 25 24 23 23 24 24 25 25 24 24 25 25 26 25 23 21 18 16 15 14 14 13 12 11 12 13 14 14 13 12 11 11 11 13 15 16 16 16 16 17
30 23 22 31 37 41 46 49 50 51 52 53 54 53 53 53 53 52 50 48 45 44 42 35 29 29 28 28 30 32 33 35 35 35 35 35 35 34 33 32 30 29 28 28 28 27 27 26 25 25 26 26 26 25 24 24 24 25 25 25 24 21 18 17 16 15 15 14 12 11 12 13 14 13 12 11 11 10 11 13 15 16 16 17 18 19
27 24 26 32 36 38 41 46 50 52 53 54 53 52 52 51 50 49 47 46 43 38 34 33 32 28 27 28 30 31 33 34 33 34 35 35 35 34 32 31 30 28 28 28 28 28 29 29 28 28 29 28 26 25 24 24 24 24 26 25 24 22 20 19 18 17 16 15 13 11 10 12 14 14 13 12 11 11 11 12 14 15 16 18 19 20
26 25 27 33 38 40 42 47 50 52 52 53 53 53 52 50 48 48 46 43 41 36 31 29 29 28 28 29 29 30 33 33 33 34 36 36 35 34 32 30 28 28 28 28 28 28 30 31 30 31 32 31 28 26 24 24 24 25 26 25 24 22 21 20 19 18 17 15 14 12 11 11 12 14 14 14 13 12 12 12 14 15 16 18 19 20
26 25 26 32 39 43 45 46 46 47 50 51 51 51 51 51 49 47 44 41 39 36 33 29 27 27 28 29 29 30 32 33 33 35 36 36 35 33 31 29 28 28 28 28 26 26 26 28 30 32 34 33 31 28 25 24 25 25 26 25 24 23 23 22 21 19 18 16 15 15 14 13 13 13 14 14 14 13 13 13 14 15 16 17 19 20
25 25 27 32 38 41 42 42 42 44 46 46 47 48 48 48 48 46 43 40 36 33 30 28 27 28 29 30 30 32 33 33 34 35 35 36 35 32 30 28 28 29 28 26 23 22 22 24 27 30 33 34 33 30 26 25 25 25 26 25 24 24 24 23 22 21 19 18 18 17 16 15 15 14 14 15 15 15 14 14 15 15 17 18 19 20
25 26 27 31 35 38 39 40 40 41 42 43 44 44 45 45 44 42 40 37 34 31 30 30 30 30 31 32 32 32 33 34 34 35 36 36 34 31 29 28 29 29 28 25 22 21 21 23 26 28 30 32 32 30 27 25 25 25 25 25 25 25 24 24 23 23 22 20 20 19 18 18 17 16 16 16 16 16 16 16 16 17 18 18 19 20
25 26 27 29 32 36 38 37 37 38 40 43 44 42 42 42 41 40 37 34 31 31 32 32 32 32 33 33 33 33 33 34 34 35 36 36 34 31 29 30 31 30 27 25 24 23 23 23 24 24 25 26 27 27 27 26 25 25 26 26 25 25 25 24 24 24 23 22 21 20 20 19 19 18 18 18 18 18 18 18 18 18 19 20 20 21
27 28 29 29 30 33 35 34 35 37 41 43 43 41 40 39 38 37 36 34 32 31 33 33 33 34 33 32 33 33 33 34 34 35 37 37 35 32 31 32 32 30 28 28 27 26 25 24 22 20 20 21 23 25 27 27 27 27 27 25 25 25 24 24 24 24 23 22 21 21 21 21 21 21 20 20 20 20 20 20 21 21 21 21 21 22
29 30 30 28 28 31 33 33 36 38 40 40 40 39 38 36 35 35 36 36 34 32 33 33 33 34 33 32 32 33 33 34 34 35 36 36 35 34 33 34 33 30 29 30 30 28 27 24 21 18 18 19 21 23 25 27 27 27 27 26 25 24 24 24 23 23 23 22 22 22 22 22 22 22 22 22 22 22 23 23 23 23 23 23 23 24
29 31 30 26 26 31 32 33 36 36 35 35 36 36 36 35 36 36 37 38 36 33 33 34 34 35 33 32 32 32 32 34 35 35 35 36 35 34 34 35 34 32 31 31 32 31 30 27 24 22 21 21 22 24 25 26 27 27 26 26 25 24 24 23 23 23 23 23 23 23 23 23 23 23 23 24 25 24 24 24 24 24 25 25 25 26
28 29 29 26 27 31 32 32 32 30 30 33 35 35 35 35 35 36 36 36 36 35 34 35 36 36 34 33 32 32 32 33 34 34 35 36 36 35 35 36 36 34 32 32 32 33 33 32 30 29 27 26 26 26 26 27 29 28 27 26 25 25 24 24 24 25 26 26 25 25 25 25 25 25 25 26 26 25 25 24 25 25 26 26 27 27
28 27 27 27 27 29 29 29 29 28 29 32 33 33 33 32 31 32 32 33 34 34 33 34 36 37 36 34 33 33 32 32 32 33 34 36 36 35 35 36 35 34 31 30 30 32 33 33 32 31 30 29 29 28 27 27 28 30 30 28 27 26 26 27 27 28 29 30 30 30 29 29 28 28 28 28 27 26 26 26 26 27 27 28 28 29
26 24 24 24 24 25 26 26 27 29 29 30 30 31 30 29 29 30 31 32 34 33 31 31 32 35 37 36 34 34 33 33 33 33 34 35 35 35 35 35 34 33 31 30 30 30 31 31 31 30 30 30 28 27 25 24 25 28 30 31 30 30 29 29 30 32 33 34 33 32 32 32 31 31 31 30 29 28 27 28 28 28 29 29 30 30
25 24 23 22 21 22 25 25 25 27 28 28 28 28 28 28 28 30 32 35 35 34 32 31 30 32 36 38 37 35 34 34 34 34 35 35 35 35 35 35 34 33 33 32 31 30 29 29 29 29 29 28 27 26 25 24 24 26 28 31 32 32 31 31 33 34 32 31 30 29 29 30 31 31 31 31 30 29 29 29 29 30 31 31 31 31
24 23 23 22 21 21 23 24 23 24 26 26 26 27 26 25 25 27 31 34 36 36 35 33 32 31 32 36 37 36 36 35 33 34 35 36 35 35 35 35 35 35 34 34 32 31 30 30 30 29 28 28 28 27 27 26 26 25 27 29 30 31 32 33 34 34 31 29 27 27 27 27 28 29 30 31 31 30 29 29 29 30 30 31 31 30
25 24 24 23 22 22 22 22 21 23 24 23 24 25 25 25 26 27 27 29 34 37 37 35 35 33 31 32 33 34 36 36 36 36 37 37 36 36 36 36 36 36 35 34 33 31 31 31 30 29 28 28 28 28 28 29 28 26 27 29 30 31 32 33 33 34 34 31 28 27 26 26 26 28 30 30 30 29 28 28 28 29 29 30 30 29
25 24 23 24 23 22 22 22 22 24 24 24 24 26 27 28 27 26 25 25 28 34 37 37 36 35 32 31 31 32 34 35 36 36 37 36 34 34 34 35 35 34 32 32 31 31 30 30 29 28 28 28 29 29 30 31 30 29 28 29 31 32 33 33 33 34 35 33 30 29 27 26 26 26 28 29 29 28 27 28 29 30 30 30 30 29
24 22 22 23 23 23 24 24 23 24 25 25 26 27 27 26 24 23 24 24 24 27 31 35 36 36 34 33 33 34 34 34 34 33 32 30 29 29 31 32 32 31 30 29 28 28 28 27 27 27 28 28 29 30 31 31 31 30 30 31 32 33 33 33 32 32 33 33 32 32 30 28 27 27 27 28 28 28 27 28 30 31 31 30 29 28
22 21 21 21 21 21 22 22 22 23 25 26 26 25 25 25 24 24 24 24 23 23 25 27 30 33 35 35 35 35 35 35 33 31 29 27 27 28 29 30 30 29 27 26 26 26 26 26 26 27 28 28 29 30 31 31 31 31 32 32 32 31 30 30 29 29 30 30 29 29 29 29 29 29 28 28 28 28 28 29 31 32 31 30 29 28
21 21 20 19 19 20 20 21 22 23 24 25 25 25 24 24 23 23 23 23 23 23 23 23 24 27 30 33 34 35 35 35 33 31 29 28 28 29 30 30 29 28 27 26 27 27 27 27 28 29 30 31 31 31 32 33 33 32 33 34 33 30 29 29 28 28 29 29 29 28 28 28 28 29 29 28 28 27 28 29 31 31 31 30 29 28
20 21 20 19 19 19 20 22 23 24 25 26 26 25 25 24 24 23 23 23 23 23 24 24 24 25 26 27 29 31 32 32 33 33 32 32 32 33 33 32 32 31 30 30 30 31 30 30 31 33 34 34 35 35 35 35 35 35 36 37 37 35 33 32 31 31 31 31 31 30 30 30 29 29 28 28 28 28 29 30 31 31 30 30 29 29
19 18 19 18 19 20 21 22 24 25 26 26 26 26 26 25 25 25 24 24 25 25 25 25 26 26 26 26 26 27 28 29 31 32 32 33 34 34 35 34 34 33 33 34 35 36 36 35 35 35 36 37 37 37 37 37 37 38 39 40 41 40 38 36 35 34 32 31 30 30 30 30 30 30 29 29 28 28 29 30 30 31 31 30 30 29
18 18 18 17 18 19 20 21 24 26 27 27 27 27 27 27 26 27 26 26 26 26 26 26 27 28 28 29 29 29 29 29 29 29 30 31 32 33 33 33 33 33 34 35 37 38 38 38 37 37 37 38 38 39 39 39 39 40 42 43 43 43 42 41 39 37 35 33 31 30 30 31 31 31 31 31 30 29 29 29 30 31 31 30 30 29
17 18 18 17 16 17 18 19 22 24 26 27 27 28 29 28 28 27 27 26 25 25 25 26 27 28 29 29 30 30 30 30 29 29 30 31 32 32 32 32 33 33 33 34 35 37 38 38 38 38 38 39 39 39 39 40 41 42 43 44 44 44 43 43 42 40 38 37 35 34 33 33 33 33 33 34 34 33 32 31 32 31 31 30 30 30
14 17 18 18 16 16 17 18 19 21 23 24 25 26 27 27 26 26 26 25 25 24 25 25 26 27 28 29 29 30 30 31 31 31 32 32 33 33 33 33 33 33 33 34 35 36 37 38 38 38 38 38 39 39 39 40 41 42 43 43 44 44 44 44 43 42 41 41 40 39 38 38 37 36 35 35 36 35 34 33 32 32 31 31 31 31
Wind_Direction
214 215 216 216 217 217 217 216 217 219 219 219 220 220 223 227 226 229 234 230 227 231 232 232 232 231 231 231 227 225 224 222 221 222 224 226 227 227 227 227 228 228 229 228 228 229 223 222 223 221 217 215 215 218 223 230 236 240 242 244 246 248 249 247 246 247 248 249 250 252 254 255 257 258 258 256 249 240 235 234 236 238 241 243 245 247
213 214 213 215 216 216 216 215 216 218 218 219 219 218 220 225 225 226 230 228 225 229 230 229 230 227 227 229 226 224 224 222 221 221 224 226 227 228 227 227 228 229 228 227 228 225 219 221 222 217 215 215 217 220 225 231 236 239 242 245 247 248 249 247 245 245 247 250 252 255 256 257 258 258 258 255 247 240 238 238 239 241 245 247 250 252
210 211 211 213 214 214 214 213 215 217 217 218 218 217 219 222 222 222 224 224 221 224 227 227 227 225 224 226 224 222 223 222 221 221 222 225 227 228 228 228 228 228 228 227 226 221 218 222 223 219 218 218 219 223 227 233 237 240 244 246 247 248 248 246 246 246 248 251 252 253 256 256 256 255 255 252 245 240 240 241 242 244 247 250 252 254
208 209 209 211 212 212 213 212 213 215 216 217 217 216 217 219 220 219 220 222 220 221 224 224 223 222 221 223 223 220 221 221 220 219 219 222 224 226 227 228 228 228 226 225 223 219 220 224 225 223 222 222 223 226 230 234 237 240 243 246 248 249 249 248 249 250 251 250 249 250 253 253 252 252 251 247 243 240 238 239 241 245 247 248 250 254
207 207 207 209 210 210 211 211 212 214 214 215 216 215 215 217 217 215 218 221 220 220 224 223 221 220 218 221 221 219 219 219 218 217 218 219 222 223 225 226 227 226 225 223 222 221 223 227 228 226 226 226 225 228 232 234 236 239 243 247 250 251 250 251 252 253 253 250 248 246 246 248 250 250 246 242 241 239 238 239 241 245 248 247 248 253
203 205 206 206 208 208 208 209 209 211 212 212 213 212 213 214 212 210 214 216 217 220 223 223 221 219 218 220 221 219 219 219 218 217 217 219 221 222 224 225 226 226 225 225 225 225 227 230 231 230 229 227 226 229 232 234 235 239 243 247 251 254 253 251 251 252 252 250 248 245 245 248 248 247 244 243 241 239 239 241 244 247 249 250 251 253
200 203 204 205 206 206 207 207 207 209 210 210 211 210 211 211 206 207 211 213 217 220 221 222 220 218 218 219 219 218 219 218 218 218 218 218 219 222 224 225 226 227 227 227 227 228 230 232 232 230 229 226 226 229 231 233 235 239 243 246 252 258 255 248 247 249 248 244 242 245 251 252 248 244 244 245 244 243 243 242 246 249 249 252 253 252
198 201 202 203 203 203 205 206 206 208 208 209 210 209 210 208 203 205 207 210 215 218 219 220 219 218 219 219 218 218 219 218 217 217 217 217 218 220 222 224 225 226 227 227 226 227 230 231 230 229 228 226 226 229 231 232 234 240 244 247 254 260 255 246 244 246 247 243 239 244 251 250 245 242 242 244 246 248 246 243 244 249 251 253 252 251
198 199 199 199 200 201 203 204 206 206 206 208 208 207 208 204 200 203 205 207 212 216 218 217 216 218 219 219 217 217 218 217 217 217 216 216 217 218 220 221 223 224 225 224 223 226 228 227 227 227 225 224 226 228 231 231 235 242 247 251 257 258 253 248 245 246 247 243 239 244 248 246 241 240 242 245 248 249 248 244 242 245 249 250 250 252
200 198 195 196 198 199 200 200 203 204 204 207 206 203 204 200 198 201 203 205 211 216 217 216 217 217 218 219 217 216 217 216 216 216 216 216 216 216 218 219 220 221 221 220 222 225 226 224 225 224 220 221 224 227 230 233 238 247 253 255 255 254 251 250 247 247 247 242 241 245 248 246 240 239 244 247 246 245 246 245 244 246 247 248 251 254
200 195 193 194 196 197 198 199 200 200 202 206 204 199 200 198 197 200 201 204 212 217 216 216 218 218 218 219 217 217 218 216 216 215 215 216 215 215 214 215 217 217 217 219 222 223 223 223 223 222 219 221 225 227 231 235 242 251 256 257 257 254 253 253 252 251 250 246 245 245 247 247 241 241 245 245 242 242 244 246 247 248 248 250 252 252
196 193 192 193 194 195 196 197 197 197 200 203 200 195 196 195 195 199 201 205 212 215 214 216 218 217 218 219 218 217 217 216 215 214 215 216 216 214 211 211 212 213 215 218 221 221 221 222 222 220 220 222 226 229 233 238 246 253 255 256 257 255 252 252 254 255 253 248 244 244 245 244 241 240 241 240 239 241 245 248 250 249 248 252 253 249
192 190 192 192 193 194 195 195 195 196 198 199 196 193 193 194 195 198 201 206 212 213 213 216 218 217 216 217 218 216 213 213 212 211 212 214 214 212 209 208 208 211 215 217 218 219 219 220 220 220 222 224 228 232 236 240 247 251 250 251 254 253 248 248 252 252 248 243 240 241 243 241 240 240 240 242 243 243 245 248 249 248 247 248 247 246
190 188 191 192 193 194 193 193 193 195 197 197 194 192 192 194 196 198 202 206 210 212 212 214 217 218 216 218 219 214 209 209 208 207 208 207 208 208 207 206 207 209 213 215 216 217 217 218 219 220 223 226 229 234 238 242 247 250 249 249 253 254 248 245 250 250 244 241 238 239 241 243 244 243 243 245 245 243 245 245 243 243 244 241 240 245
192 189 190 190 192 194 192 191 193 195 196 195 193 190 191 195 198 199 202 206 209 212 212 213 215 217 216 218 218 211 207 206 204 203 203 202 202 203 203 203 206 209 211 213 215 216 216 217 219 221 224 227 230 235 240 244 248 250 251 250 251 253 251 245 247 247 245 241 237 238 243 247 248 249 247 246 245 244 245 243 241 241 241 238 238 244
191 193 192 189 190 191 190 190 189 192 194 193 191 188 189 194 198 201 203 206 209 212 213 213 215 216 215 216 214 207 204 204 202 201 201 200 200 200 200 201 205 208 209 212 214 214 215 217 219 221 224 229 232 237 241 245 248 250 251 251 251 255 257 250 243 242 244 242 240 244 248 249 249 247 246 246 245 245 243 240 239 238 236 237 241 244
189 194 193 190 189 189 188 189 188 189 192 192 191 189 189 193 197 200 203 206 208 212 213 213 215 217 216 216 211 203 203 204 202 201 200 200 200 199 199 202 205 208 208 211 212 212 214 216 219 222 226 231 234 237 240 243 246 248 250 254 256 259 260 252 242 240 242 244 246 249 249 251 250 245 245 247 246 245 242 237 233 232 235 241 244 244
190 195 192 189 189 187 185 187 188 187 189 191 191 188 190 194 196 197 202 206 208 211 214 214 216 219 219 218 210 201 203 203 201 200 199 199 199 199 201 204 206 208 209 211 212 212 214 216 219 224 228 233 235 237 240 241 244 246 250 255 258 259 258 249 242 242 244 246 249 249 248 252 252 245 244 248 247 244 239 233 229 229 236 242 243 245
188 194 191 189 189 186 184 185 186 186 186 188 189 189 193 197 197 197 201 205 207 209 213 214 215 218 220 219 210 202 204 203 199 200 200 200 200 202 204 206 207 209 211 212 214 214 215 218 222 226 230 233 236 238 239 240 242 245 249 253 256 257 253 244 240 244 247 249 250 250 250 250 246 239 238 244 246 239 229 228 230 233 236 239 241 243
187 190 189 187 187 187 186 184 185 187 188 186 186 190 195 196 197 199 203 205 206 208 213 214 214 216 218 217 209 202 202 202 199 200 200 200 201 203 205 206 208 210 212 214 215 216 218 222 225 228 231 234 235 237 238 239 241 243 247 250 253 253 248 241 239 243 247 247 248 251 253 247 238 236 238 240 237 225 218 230 239 238 236 235 236 237
184 187 188 186 185 187 187 185 184 188 190 188 187 189 193 195 196 199 203 205 205 207 213 215 215 216 217 216 208 201 200 201 200 199 199 199 200 201 202 204 207 210 211 213 215 216 219 224 228 230 232 233 234 235 237 239 241 243 247 250 250 247 244 242 243 245 245 243 246 254 256 246 235 235 239 238 230 222 226 239 242 238 236 235 236 237
179 186 187 185 185 186 186 185 185 186 188 189 188 188 190 194 196 197 201 203 203 206 211 214 216 217 217 215 207 200 200 200 199 197 197 199 199 199 200 203 206 208 209 210 212 215 220 225 230 232 232 232 232 234 237 239 242 245 247 248 246 241 240 242 243 242 238 240 251 259 255 241 229 232 241 240 234 232 235 239 238 237 238 239 240 242
177 180 184 185 186 186 184 185 186 186 187 187 187 186 189 193 195 197 201 202 203 206 209 212 214 215 216 213 205 199 200 200 198 196 195 196 197 198 199 202 204 205 206 207 211 217 221 226 230 231 231 230 231 233 236 239 242 245 246 244 241 237 237 238 237 237 238 242 251 257 252 235 227 238 247 242 237 237 238 239 241 242 243 241 240 238
176 174 181 184 184 184 183 184 186 187 187 186 184 186 189 192 194 195 199 202 204 206 209 212 213 213 212 209 204 200 200 200 199 196 195 194 195 196 198 201 203 203 205 207 213 219 223 226 227 227 228 228 230 233 235 239 243 244 243 242 238 235 236 235 234 237 240 241 245 251 249 238 236 244 246 240 241 243 242 241 242 243 242 238 235 234
177 173 181 182 179 181 184 184 185 186 186 183 184 188 190 190 192 194 198 201 202 204 207 211 214 214 209 205 203 201 200 201 198 196 195 194 193 195 197 200 201 201 205 209 215 221 224 226 224 223 224 226 228 231 234 239 242 241 241 239 237 235 234 233 234 236 236 236 240 247 245 238 238 243 244 243 245 245 242 240 240 242 241 237 235 236
175 170 182 185 182 183 184 185 185 184 183 183 185 189 190 189 191 195 199 200 200 203 204 203 207 211 206 202 203 201 200 201 198 195 194 193 193 195 196 198 198 200 206 212 217 221 224 224 221 219 222 223 227 230 233 238 240 239 239 239 238 236 233 231 233 234 233 234 237 240 237 233 233 237 242 244 244 244 243 241 242 244 243 242 242 244
173 169 176 182 184 184 184 185 186 185 183 184 186 189 191 191 191 194 198 199 199 203 204 201 201 203 200 199 203 201 198 200 197 193 193 192 192 194 194 195 197 201 208 215 219 223 226 226 223 221 224 225 227 230 234 237 237 236 237 239 240 238 234 232 232 232 233 235 236 235 233 230 228 230 235 239 241 245 245 246 248 250 250 250 250 252
172 173 175 176 178 182 186 188 188 186 186 185 186 188 190 192 192 194 197 198 198 200 203 205 206 203 196 197 202 200 198 198 195 192 192 192 191 191 191 194 198 203 211 217 222 225 228 229 227 226 227 227 228 232 235 237 236 234 236 239 242 241 237 234 233 233 234 236 239 241 238 232 228 228 231 235 240 244 245 249 253 256 258 259 258 259
170 173 177 178 177 180 186 190 188 187 187 187 187 188 189 190 191 194 196 196 195 194 194 198 202 200 196 197 200 198 196 195 192 190 192 191 189 187 188 193 200 206 213 219 224 226 229 231 230 230 230 230 230 233 236 238 235 234 236 240 243 244 241 238 236 235 236 238 241 246 246 242 237 233 233 236 240 244 246 249 254 258 262 263 264 265
170 172 176 179 181 183 185 187 187 188 189 189 189 189 189 188 190 192 193 193 193 193 189 186 188 192 192 194 196 196 194 192 190 190 190 188 185 184 186 193 201 208 214 218 222 225 228 230 230 230 231 231 231 234 236 237 235 234 235 239 242 244 244 242 241 239 238 239 241 244 246 248 246 243 241 241 243 246 249 250 253 257 259 262 264 266
171 171 174 178 181 184 184 183 185 189 191 192 192 191 190 190 190 190 191 191 191 189 184 176 176 182 185 187 190 192 192 191 189 188 187 184 182 182 187 195 202 209 213 214 216 219 221 224 227 228 230 230 231 232 234 236 235 234 234 236 239 242 244 245 245 244 242 241 241 242 245 247 249 250 250 249 248 250 251 252 254 256 258 260 262 264
167 169 172 175 179 182 183 183 184 186 189 192 194 193 192 191 190 189 190 189 186 180 173 170 173 177 179 182 185 188 190 190 187 185 184 182 182 184 190 198 205 209 210 209 212 214 215 220 224 226 226 227 228 230 231 234 234 234 235 236 237 239 242 245 247 246 244 244 244 243 244 247 250 253 255 255 255 255 254 255 256 258 260 261 263 265
165 166 166 170 176 180 182 183 182 183 187 191 191 191 191 191 189 188 187 186 184 178 172 170 172 175 177 179 181 184 187 187 184 183 183 183 184 188 194 200 206 208 207 208 212 211 208 211 214 215 217 219 222 225 228 232 233 235 237 238 239 240 242 245 246 246 246 247 247 247 247 249 253 255 257 259 260 260 259 258 259 259 261 263 265 267
161 163 164 166 172 178 181 181 181 183 187 188 187 188 190 190 189 188 184 180 179 176 172 171 172 172 175 177 178 180 184 184 183 183 184 185 188 192 197 202 206 207 207 210 212 206 201 201 203 206 211 216 222 226 229 232 235 238 241 242 243 244 245 247 247 247 247 249 250 250 250 252 254 256 260 262 263 263 262 261 260 261 262 264 267 268
157 161 162 163 170 176 178 180 181 184 187 187 186 186 186 186 187 186 184 183 181 176 171 172 173 171 173 176 176 176 179 181 183 184 186 188 192 196 200 203 205 206 209 213 212 206 202 202 206 214 223 228 231 233 234 235 238 241 244 246 246 246 246 247 248 248 249 249 250 250 251 253 255 258 262 263 264 263 262 261 261 262 263 265 266 268
154 158 158 160 170 176 177 180 182 184 185 186 185 185 184 184 185 184 185 189 189 183 174 173 173 172 173 176 175 174 176 179 182 185 189 192 196 199 202 203 204 207 211 214 214 211 211 213 220 230 238 241 242 241 241 239 239 241 244 245 246 246 247 247 248 250 251 250 251 251 252 255 258 261 263 264 264 263 262 263 263 263 263 264 265 267
151 154 157 161 169 173 175 178 180 181 182 184 185 185 185 184 184 184 184 187 189 185 179 175 174 174 175 176 176 175 176 179 181 186 191 195 199 202 203 204 206 209 213 216 217 218 221 226 233 240 245 248 249 249 249 245 242 240 241 242 244 245 247 249 250 252 253 253 253 253 254 257 259 262 263 263 264 264 264 264 263 263 263 264 265 267
149 153 160 164 165 170 173 175 176 178 181 182 183 184 184 183 183 183 183 185 185 183 180 178 177 177 177 178 179 179 179 181 184 187 192 196 199 202 204 206 210 214 217 218 220 222 226 232 238 243 246 249 251 252 252 250 247 243 240 240 243 245 250 253 255 256 256 256 256 256 257 259 261 262 263 263 264 264 264 264 262 262 263 264 265 266
148 151 157 159 160 165 170 174 177 178 178 179 180 180 179 179 179 179 179 182 182 177 175 175 177 180 182 181 181 182 184 186 187 189 193 197 200 202 205 209 214 218 220 222 225 227 230 234 240 244 247 250 251 250 247 246 247 244 242 241 243 246 250 253 256 258 259 259 259 260 261 261 262 263 263 263 262 263 264 264 263 263 264 265 266 267
149 151 151 152 156 163 168 175 180 179 176 177 176 175 174 174 175 175 176 181 180 174 171 173 173 178 184 186 185 186 187 189 191 192 195 199 203 206 210 214 217 220 223 227 232 236 237 239 243 246 248 247 244 241 239 238 239 240 239 239 241 244 247 250 253 256 259 259 259 260 261 261 262 262 262 261 262 263 263 264 263 263 265 267 267 268
150 153 153 150 152 162 169 174 178 177 175 175 173 172 172 171 174 177 180 182 181 174 171 173 173 174 179 185 188 191 192 194 196 196 197 201 207 211 216 220 222 225 229 234 239 242 243 243 244 244 244 242 240 237 234 234 237 240 239 239 240 242 245 248 251 254 256 257 259 260 260 261 263 264 264 263 263 263 263 263 264 265 267 269 268 269
152 153 156 155 156 162 167 170 172 172 172 172 170 170 170 172 177 183 183 183 183 180 177 175 175 176 178 181 185 190 194 198 201 202 203 206 210 216 221 225 229 231 233 236 238 239 240 240 241 240 240 239 239 239 237 235 239 244 243 241 242 244 246 247 250 252 255 258 261 261 261 262 264 266 267 267 265 262 261 263 264 265 266 266 268 270
157 155 156 158 160 163 164 164 168 171 172 171 170 171 175 179 182 183 181 181 184 186 186 186 186 188 188 186 186 188 193 199 203 205 207 210 214 219 223 226 229 230 232 234 235 236 237 239 239 239 239 239 239 240 241 240 243 246 246 244 243 244 246 248 251 254 258 261 262 262 262 263 266 268 269 268 267 264 261 261 262 263 263 265 268 271
165 163 159 159 163 169 169 168 169 172 173 173 174 177 181 183 184 182 180 181 183 186 191 196 198 200 199 196 194 194 197 201 205 209 212 216 219 220 221 224 227 228 230 234 236 236 237 239 241 241 242 241 241 241 242 243 245 247 247 246 246 247 249 252 254 256 258 259 260 261 261 263 265 267 268 268 268 266 263 261 262 263 265 267 269 270
171 171 166 163 168 173 173 171 169 171 173 175 177 180 181 180 182 185 185 186 188 188 191 195 198 202 204 204 203 204 206 209 214 218 222 224 224 222 222 225 226 228 232 235 235 235 237 240 243 244 245 246 246 245 245 246 246 247 247 247 249 251 252 252 253 254 255 257 259 261 262 262 262 263 264 267 268 267 264 262 262 265 268 269 269 268
174 175 173 171 173 175 176 176 175 174 176 178 179 181 182 181 182 185 187 190 193 195 196 196 196 199 204 207 209 211 215 218 221 224 225 226 226 225 226 228 229 232 236 237 235 235 237 240 244 247 248 249 250 251 251 251 250 250 250 249 250 251 252 252 252 253 255 257 261 263 264 263 263 263 264 267 269 268 265 262 263 266 269 270 270 270
175 174 177 179 180 181 181 180 179 179 180 182 183 185 187 186 185 186 188 191 194 197 201 202 202 203 205 206 208 211 215 219 221 223 224 226 227 229 231 234 236 237 237 237 237 237 239 243 247 248 249 250 252 253 254 254 254 254 253 252 252 254 256 257 259 260 260 260 261 261 261 263 265 266 268 270 270 267 264 263 265 268 269 270 271 271
180 175 177 179 180 182 183 182 181 182 183 186 187 189 191 192 192 192 192 193 195 199 202 205 206 208 210 210 211 212 213 216 219 221 223 225 228 230 234 236 237 236 235 236 237 239 242 246 248 248 248 250 251 253 254 255 255 255 255 255 256 258 261 263 263 264 263 261 260 260 261 264 267 269 269 270 270 268 267 267 268 269 270 270 271 271
189 185 182 177 173 176 181 182 183 184 185 187 189 191 193 195 196 197 198 199 200 201 205 208 210 212 214 215 216 217 218 219 220 221 223 225 227 229 232 233 233 233 234 235 237 239 242 245 246 247 248 249 251 252 253 254 255 256 256 257 259 261 263 264 265 265 264 263 262 264 266 268 270 271 270 269 268 268 269 269 268 268 269 269 269 269
191 189 188 183 175 174 178 180 182 184 186 188 191 193 196 198 200 201 202 204 205 206 209 212 214 216 218 220 222 223 223 224 224 224 225 227 229 230 232 233 233 233 234 235 237 239 241 243 244 246 247 249 250 251 252 253 254 255 257 258 260 262 263 264 264 265 265 265 266 267 269 270 271 272 271 270 269 268 268 268 267 267 268 268 268 269
200 193 190 189 185 182 184 184 183 184 187 190 192 194 196 199 202 203 203 205 207 209 212 214 216 219 220 222 225 227 228 228 229 229 229 231 233 234 235 236 236 236 235 236 237 238 240 243 244 246 247 249 250 251 252 253 254 256 257 259 260 262 263 264 264 265 265 265 266 267 269 270 271 271 270 270 269 269 268 267 266 266 266 267 269 270